Regional Weather Roundup
Issued by NWS Grand Forks, ND

Home | Current Version | Previous Version | Graphics & Text | Print | Product List | Glossary On
Versions: 1 2 3 4 5 6 7 8 9 10 11 12 13 14 15 16 17 18 19 20 21 22 23 24 25 26 27 28 29 30 31 32 33 34 35 36 37 38 39 40 41 42 43 44 45 46 47 48 49 50
000
ASUS43 KFGF 290031
RWRFGF
PRAIRIE TO PINES  WEATHER ROUNDUP
NATIONAL WEATHER SERVICE EASTERN NORTH DAKOTA/GRAND FORKS ND
600 PM CST SUN DEC 28 2014

 **SATELLITE DATA USED TO AUGMENT SKY COVER AT AUTOMATED STATIONS**
 *****  WEATHER ACROSS EASTERN NORTH DAKOTA  *****

CITY           SKY/WX    TMP DP  RH WIND       PRES   REMARKS
GRAND FORKS    CLEAR     -7 -11  83 N7        30.42R WCI -21
6HR MIN TEMP:  -7; 6HR MAX TEMP:   1;

GRAND FRKS AFB CLEAR     -6 -10  84 N5        30.42R WCI -18
GRAND FRKS NWS   N/A     -4 N/A N/A N7          N/A  WCI -18
DEVILS LAKE    CLEAR     -6 -13  71 NE3       30.35R
6HR MIN TEMP:  -6; 6HR MAX TEMP:   0;

FARGO          CLEAR      0  -7  72 N9        30.39R WCI -15
WAHPETON ARPT  CLEAR      5  -2  72 N10       30.35R WCI -10
$$

 ***** WEATHER ACROSS CENTRAL AND WESTERN NORTH DAKOTA  *****

CITY           SKY/WX    TMP DP  RH WIND       PRES   REMARKS
BISMARCK       CLOUDY     6   0  76 NE12      30.29R WCI  -9
6HR MIN TEMP:   6; 6HR MAX TEMP:  10; 6HR PCP: TRACE;

MINOT          MOCLDY    -3  -7  82 N10       30.35R WCI -20
6HR MIN TEMP:  -3; 6HR MAX TEMP:   2;

JAMESTOWN      CLOUDY    -1  -6  79 N12       30.31R WCI -18
6HR MIN TEMP:  -1; 6HR MAX TEMP:   3;

MINOT AFB      PTCLDY    -5  -8  86 N8        30.36R WCI -20
GARRISON         N/A      4  -1  80 NE10      30.28R WCI -11
WILLISTON      CLOUDY     7  -1  70 N14       30.31R WCI -10
6HR MIN TEMP:   7; 6HR MAX TEMP:  11; 6HR PCP: TRACE;

DICKINSON      LGT SNOW  12   7  80 NE13      30.15R WCI  -3
6HR MIN TEMP:  12; 6HR MAX TEMP:  18; 6HR PCP: TRACE;

HETTINGER      LGT SNOW  16  12  84 E12       30.12R FOG     WCI   3
6HR MIN TEMP:  17; 6HR MAX TEMP:  21; 6HR PCP: TRACE;

$$

 *****  OTHER AIRPORT OBSERVATIONS IN OUR AREA  *****

CITY           SKY/WX    TMP DP  RH WIND       PRES   REMARKS
WALHALLA         N/A     -6 -11  77 NW5       30.43R WCI -17
GRAFTON AIRPOR NOT AVBL
VALLEY CITY AR FAIR       0  -2  92 NE9       30.33R WCI -16
CANDO          FAIR      -6  -9  84 N7        30.37R WCI -20
CAVALIER APRT  FAIR      -8 -11  84 NW6       30.43S WCI -21
GWINNER        CLEAR      3  -2  78 N14       30.34R WCI -15
SHEYENNE NWR     N/A      1  -7  70 N9        29.95S WCI -14
ROLLA          FAIR      -8 -11  84 NW8       30.34R WCI -23
 ***** THE ABOVE OBSERVATIONS ARE NON NWS ARE NOT QUALITY
       CONTROLLED AND MAY MIS-REPORT RAIN FOR SNOW...
$$

  *****  WEATHER ACROSS NORTHERN MINNESOTA  *****

CITY           SKY/WX    TMP DP  RH WIND       PRES   REMARKS
FLAG ISLAND    CLEAR     -6 -11  77 NW12      30.33S WCI -24
WARROAD        CLEAR     -6 -11  77 NW8       30.35R WCI -21
ROSEAU         CLEAR     -4 -11  71 W9        30.36R WCI -20
HALLOCK        CLEAR     -6 -13  71 N9        30.42R WCI -22
THF RVR FALLS  CLEAR     -6  -9  84 NW9       30.36R WCI -22
6HR MIN TEMP:  -6; 6HR MAX TEMP:   0;

BAUDETTE       CLEAR     -3 -10  72 W3        30.30R
6HR MIN TEMP:  -5; 6HR MAX TEMP:  -1;

WASKISH        CLEAR      1  -6  71 NW3       30.31R
CROOKSTON      CLEAR     -6  -9  84 N9        30.42R WCI -22
STEPHEN NDAWN    N/A     -6 -11  77 N7          N/A  WCI -20
GREENBUSH NDAW   N/A     -8 -11  84 NW12        N/A  WCI -27
$$
  *****  WEATHER ACROSS CENTRAL AND WEST MINNESOTA  *****

CITY           SKY/WX    TMP DP  RH WIND       PRES   REMARKS
FOSSTON        CLEAR     -6  -9  84 CALM      30.35R
BEMIDJI        CLEAR     -4  -8  80 NW7       30.30R WCI -17
PARK RAPIDS    CLEAR      6  -4  63 N7        30.27R WCI  -6
6HR MIN TEMP:   6; 6HR MAX TEMP:  13;

ELBOW LAKE     FAIR       9   4  81 N8        30.28R WCI  -3
6HR MIN TEMP:  10; 6HR MAX TEMP:  16;

WADENA         CLEAR      7   0  72 NE3       30.28R
DETROIT LAKES  CLEAR      3   0  85 N12       30.32R WCI -13
MOORHEAD       CLEAR      0  -4  85 N14       30.39R WCI -19
FERGUS FALLS   CLEAR      5  -2  72 N8        30.35R WCI  -8
MORRIS MN      CLEAR     10   7  85 NW13      30.27S WCI  -5
STAPLES        CLEAR      9   0  66 N7        30.28R WCI  -3
$$
  *****  WEATHER ELSEWHERE ACROSS MINNESOTA  *****

CITY           SKY/WX    TMP DP  RH WIND       PRES   REMARKS
DULUTH         CLEAR      5  -5  63 NW6       30.22R WCI  -6
6HR MIN TEMP:   5; 6HR MAX TEMP:  10;

INTRNTL FALLS  CLEAR     -4 -11  72 NW8       30.29R WCI -19
6HR MIN TEMP:  -4; 6HR MAX TEMP:   3;

ELY            CLEAR      0  -8  71 CALM      30.23R
CLOQUET        CLEAR      5  -6  61 NW6       30.25R WCI  -6
WHEATON        PTCLDY     5   0  78 NW14      30.35R WCI -12
BRAINERD       CLEAR      8  -1  66 N7        30.28R WCI  -3
6HR MIN TEMP:   8; 6HR MAX TEMP:  14;

HIBBING        CLEAR      1  -7  68 NW5       30.24R WCI  -9
6HR MIN TEMP:   1; 6HR MAX TEMP:   9; 6HR PCP: TRACE;

ALEXANDRIA     CLEAR     13   3  64 N7        30.25R WCI   3
6HR MIN TEMP:  13; 6HR MAX TEMP:  20;

SAINT CLOUD    CLEAR     15   3  59 N5        30.26R WCI   8
6HR MIN TEMP:  15; 6HR MAX TEMP:  24;

MINNEAPOLIS    FAIR      17   8  67 N6        30.26R WCI   9
6HR MIN TEMP:  17; 6HR MAX TEMP:  24;

$$

  *****  WEATHER ACROSS SOUTH DAKOTA  *****

CITY           SKY/WX    TMP DP  RH WIND       PRES   REMARKS
SIOUX FALLS    CLOUDY    20  17  88 NE12      30.18R WCI   8
6HR MIN TEMP:  13; 6HR MAX TEMP:  21;

BROOKINGS      NOT AVBL
WATERTOWN      CLOUDY     8   3  80 NE12      30.19R WCI  -7
6HR MIN TEMP:   8; 6HR MAX TEMP:  16;

HURON          CLOUDY    17  13  84 E7        30.22R WCI   8
6HR MIN TEMP:  16; 6HR MAX TEMP:  20;

SISSETON         N/A      6   1  80 N9        30.31  WCI  -8
ABERDEEN       MOCLDY     7  -1  70 NE10      30.28R WCI  -8
6HR MIN TEMP:   7; 6HR MAX TEMP:  13;

MITCHELL       CLOUDY    21  18  88 E5        30.20R WCI  15
PIERRE         LGT SNOW  19  16  88 E14       30.16R FOG     WCI   6
6HR MIN TEMP:  16; 6HR MAX TEMP:  19; 6HR PCP: TRACE;

MOBRIDGE       CLOUDY    11   6  81 E9        30.20R WCI  -2
RAPID CITY     LGT SNOW  18  14  84 NE9       30.01R FOG     WCI   7
6HR MIN TEMP:  18; 6HR MAX TEMP:  27; 6HR PCP: TRACE;

$$

  *****  SOME WEATHER IN NEARBY STATES *****

CITY           SKY/WX    TMP DP  RH WIND       PRES   REMARKS
GLASGOW MT     CLOUDY    11   2  67 NE9       30.28R WCI  -2
6HR MIN TEMP:  11; 6HR MAX TEMP:  17; 6HR PCP: TRACE;

GREAT FALLS MT LGT SNOW  11   8  88 N20       30.23R FOG     WCI  -7
6HR MIN TEMP:  11; 6HR MAX TEMP:  14; 6HR PCP:  0.18;

CHEYENNE WY    PTCLDY    24   8  50 W7        29.84R WCI  16
6HR MIN TEMP:  23; 6HR MAX TEMP:  33;

SCOTTSBLUFF NE MOCLDY    17  12  80 E8        29.91R WCI   7
6HR MIN TEMP:  17; 6HR MAX TEMP:  33;

OMAHA NE       MOCLDY    28  22  78 N9        30.15R WCI  19
6HR MIN TEMP:  27; 6HR MAX TEMP:  34;

DES MOINES IA  MOCLDY    31  21  66 NE5       30.16R
6HR MIN TEMP:  28; 6HR MAX TEMP:  36;

DAVENPORT IA   CLEAR     27  18  69 N3        30.18S
6HR MIN TEMP:  27; 6HR MAX TEMP:  34;

CHICAGO IL     CLEAR     30  16  56 CALM      30.18R
6HR MIN TEMP:  28; 6HR MAX TEMP:  35;

EAU CLAIRE WI  FOG        7   6  96 CALM      30.25R VSB 1/4
6HR MIN TEMP:   9; 6HR MAX TEMP:  20;

LA CROSSE WI   CLOUDY    24  16  71 N8        30.24R WCI  15
6HR MIN TEMP:  22; 6HR MAX TEMP:  29;

$$

  *****  SOME NATIONAL WEATHER *****

CITY           SKY/WX    TMP DP  RH WIND       PRES   REMARKS
LA GUARDIA NY  CLOUDY    47  34  60 NW12G21   29.99R
6HR MIN TEMP:  47; 6HR MAX TEMP:  52;

RALEIGH NC     CLOUDY    57  54  89 CALM      30.05R
6HR MIN TEMP:  57; 6HR MAX TEMP:  61; 6HR PCP:  0.01;

ATLANTA GA     DRIZZLE   61  57  88 CALM      30.08R FOG
6HR MIN TEMP:  60; 6HR MAX TEMP:  61;

NEW ORLEANS LA CLOUDY    59  55  87 N13       30.05F
6HR MIN TEMP:  58; 6HR MAX TEMP:  61;

OKLAHOMA CITY  PTCLDY    36  23  59 S5        30.09S
6HR MIN TEMP:  35; 6HR MAX TEMP:  43;

ALBUQUERQUE NM MOCLDY    33  13  43 SE8       30.07S
6HR MIN TEMP:  29; 6HR MAX TEMP:  37;

SALT LAKE CITY CLOUDY    30  26  85 S6        30.05R WCI  24
6HR MIN TEMP:  28; 6HR MAX TEMP:  33; 6HR PCP:  0.01;



USA.gov is the U.S. government's official web portal to all federal, state and local government web resources and services.